FIN6GT ESSV-EFTU

Flight info

Callsign FIN6GT
Flight time 0h 38m
Altitude 31000
Route ROGMI DCT NISIX DCT EMPOM
Aircraft A320/M-SDE3FGHIRWY/LB1

Departure

Time 2026-05-06 18:14
Airport Visby Airport (ESSV)

Arrival

Time 2026-05-06 18:52
Airport Turku Airport (EFTU)
Time Latitude Longitude Altitude Speed Heading
2026-05-06 18:00 57.66019 18.33923 159 ft 0 kts 337°
2026-05-06 18:08 57.66025 18.33922 159 ft 0 kts 353°
2026-05-06 18:09 57.66034 18.33949 159 ft 6 kts 68°
2026-05-06 18:09 57.66024 18.34036 159 ft 7 kts 114°
2026-05-06 18:09 57.66008 18.34110 159 ft 5 kts 111°
2026-05-06 18:09 57.65998 18.34159 159 ft 3 kts 111°
2026-05-06 18:10 57.65991 18.34194 159 ft 2 kts 111°
2026-05-06 18:10 57.65989 18.34203 159 ft 0 kts 110°
2026-05-06 18:12 57.65986 18.34219 159 ft 5 kts 111°
2026-05-06 18:12 57.65964 18.34326 157 ft 11 kts 110°
2026-05-06 18:12 57.65989 18.34412 156 ft 0 kts 20°
2026-05-06 18:14 57.66005 18.34423 156 ft 20 kts 20°
2026-05-06 18:14 57.66444 18.34743 156 ft 112 kts 20°
2026-05-06 18:14 57.67336 18.35377 590 ft 142 kts 24°
2026-05-06 18:14 57.68310 18.35938 1388 ft 155 kts
2026-05-06 18:15 57.69456 18.35345 1721 ft 187 kts 340°
2026-05-06 18:15 57.70739 18.34349 2002 ft 212 kts 341°
2026-05-06 18:15 57.72195 18.33285 2426 ft 237 kts 341°
2026-05-06 18:15 57.73803 18.32137 3052 ft 254 kts 342°
2026-05-06 18:16 57.75473 18.30956 4020 ft 258 kts 341°
2026-05-06 18:16 57.77162 18.29768 5032 ft 261 kts 341°
2026-05-06 18:16 57.78876 18.28569 5984 ft 265 kts 342°
2026-05-06 18:16 57.80617 18.27353 6877 ft 269 kts 342°
2026-05-06 18:17 57.82387 18.26119 7769 ft 273 kts 341°
2026-05-06 18:17 57.84180 18.24872 8681 ft 277 kts 340°
2026-05-06 18:17 57.85953 18.23636 9548 ft 281 kts 340°
2026-05-06 18:17 57.87806 18.22345 10297 ft 290 kts 340°
2026-05-06 18:18 57.89776 18.20976 10599 ft 313 kts 339°
2026-05-06 18:18 57.91877 18.19516 11060 ft 328 kts 339°
2026-05-06 18:18 57.94010 18.18028 11789 ft 333 kts 338°
2026-05-06 18:18 57.96193 18.16501 12597 ft 337 kts 338°
2026-05-06 18:19 57.98407 18.14950 13352 ft 342 kts 338°
2026-05-06 18:19 58.00650 18.13374 14075 ft 346 kts 338°
2026-05-06 18:19 58.02925 18.11820 14741 ft 351 kts 341°
2026-05-06 18:19 58.05367 18.11223 15378 ft 361 kts
2026-05-06 18:20 58.07845 18.12280 16001 ft 372 kts 21°
2026-05-06 18:20 58.10006 18.15022 16604 ft 381 kts 41°
2026-05-06 18:20 58.11949 18.18491 17207 ft 387 kts 41°
2026-05-06 18:20 58.13914 18.22021 17807 ft 392 kts 41°
2026-05-06 18:21 58.15908 18.25606 18381 ft 398 kts 41°
2026-05-06 18:21 58.17926 18.29238 18900 ft 402 kts 41°
2026-05-06 18:21 58.19967 18.32905 19438 ft 407 kts 41°
2026-05-06 18:21 58.22033 18.36609 19984 ft 411 kts 41°
2026-05-06 18:22 58.24123 18.40353 20533 ft 415 kts 41°
2026-05-06 18:22 58.26235 18.44142 21068 ft 419 kts 41°
2026-05-06 18:22 58.28362 18.47972 21593 ft 424 kts 41°
2026-05-06 18:22 58.30515 18.51861 22109 ft 429 kts 41°
2026-05-06 18:23 58.32682 18.55790 22628 ft 434 kts 41°
2026-05-06 18:23 58.34877 18.59778 23150 ft 438 kts 41°
2026-05-06 18:23 58.37093 18.63806 23638 ft 442 kts 41°
2026-05-06 18:23 58.39324 18.67863 24050 ft 445 kts 41°
2026-05-06 18:24 58.41541 18.71902 24468 ft 448 kts 42°
2026-05-06 18:24 58.43804 18.76032 24884 ft 451 kts 42°
2026-05-06 18:24 58.46080 18.80192 25292 ft 454 kts 42°
2026-05-06 18:24 58.48362 18.84379 25685 ft 457 kts 42°
2026-05-06 18:25 58.50665 18.88614 26072 ft 461 kts 42°
2026-05-06 18:25 58.52987 18.92889 26388 ft 466 kts 42°
2026-05-06 18:25 58.55331 18.97209 26744 ft 469 kts 43°
2026-05-06 18:25 58.57690 19.01558 27107 ft 472 kts 43°
2026-05-06 18:26 58.60063 19.05948 27469 ft 475 kts 43°
2026-05-06 18:26 58.62446 19.10366 27825 ft 478 kts 43°
2026-05-06 18:26 58.64841 19.14819 28172 ft 480 kts 43°
2026-05-06 18:26 58.67235 19.19283 28562 ft 481 kts 43°
2026-05-06 18:27 58.69644 19.23779 28942 ft 483 kts 43°
2026-05-06 18:27 58.72054 19.28282 29282 ft 485 kts 43°
2026-05-06 18:27 58.74482 19.32833 29566 ft 489 kts 43°
2026-05-06 18:27 58.76927 19.37424 29821 ft 493 kts 43°
2026-05-06 18:28 58.79386 19.42048 30110 ft 496 kts 43°
2026-05-06 18:28 58.81860 19.46712 30362 ft 498 kts 44°
2026-05-06 18:28 58.84338 19.51390 30606 ft 500 kts 44°
2026-05-06 18:28 58.86829 19.56102 30845 ft 502 kts 44°
2026-05-06 18:29 58.89327 19.60844 31000 ft 502 kts 44°
2026-05-06 18:29 58.91779 19.65517 31028 ft 488 kts 44°
2026-05-06 18:29 58.96559 19.74637 31043 ft 481 kts 44°
2026-05-06 18:30 59.01339 19.83773 31030 ft 484 kts 44°
2026-05-06 18:30 59.05315 19.91412 31030 ft 484 kts 44°
2026-05-06 18:31 59.10086 20.00634 31029 ft 484 kts 44°
2026-05-06 18:31 59.14852 20.09882 31027 ft 483 kts 44°
2026-05-06 18:32 59.19638 20.19197 30894 ft 494 kts 44°
2026-05-06 18:32 59.22093 20.23980 29968 ft 501 kts 44°
2026-05-06 18:32 59.24561 20.28800 29032 ft 502 kts 44°
2026-05-06 18:33 59.27026 20.33632 28231 ft 500 kts 44°
2026-05-06 18:33 59.29444 20.38387 27786 ft 487 kts 44°
2026-05-06 18:33 59.31864 20.42928 26938 ft 474 kts 37°
2026-05-06 18:33 59.34442 20.46684 26504 ft 453 kts 32°
2026-05-06 18:34 59.36968 20.50192 26023 ft 438 kts 32°
2026-05-06 18:34 59.39408 20.53610 25572 ft 424 kts 32°
2026-05-06 18:34 59.41791 20.56950 25158 ft 419 kts 32°
2026-05-06 18:34 59.44160 20.60256 24696 ft 417 kts 31°
2026-05-06 18:35 59.46521 20.63543 24262 ft 415 kts 31°
2026-05-06 18:35 59.48871 20.66819 23817 ft 412 kts 31°
2026-05-06 18:35 59.51179 20.70041 23340 ft 410 kts 31°
2026-05-06 18:35 59.53493 20.73281 22888 ft 406 kts 31°
2026-05-06 18:36 59.55785 20.76490 22459 ft 402 kts 31°
2026-05-06 18:36 59.58060 20.79681 21994 ft 399 kts 31°
2026-05-06 18:36 59.60312 20.82852 21549 ft 396 kts 31°
2026-05-06 18:36 59.62542 20.86001 21104 ft 393 kts 32°
2026-05-06 18:37 59.64763 20.89147 20648 ft 391 kts 32°
2026-05-06 18:37 59.66967 20.92269 20231 ft 389 kts 31°
2026-05-06 18:37 59.69164 20.95389 19741 ft 388 kts 31°
2026-05-06 18:37 59.71353 20.98502 19296 ft 386 kts 31°
2026-05-06 18:38 59.73532 21.01603 18845 ft 385 kts 32°
2026-05-06 18:38 59.75729 21.04735 18388 ft 383 kts 32°
2026-05-06 18:38 59.77862 21.07783 17900 ft 381 kts 32°
2026-05-06 18:38 59.80029 21.10883 17454 ft 378 kts 32°
2026-05-06 18:39 59.82124 21.13883 17020 ft 374 kts 32°
2026-05-06 18:39 59.84252 21.16936 16568 ft 371 kts 32°
2026-05-06 18:39 59.86313 21.19901 16144 ft 369 kts 32°
2026-05-06 18:40 59.90436 21.25842 15282 ft 363 kts 32°
2026-05-06 18:40 59.92473 21.28779 14846 ft 361 kts 32°
2026-05-06 18:40 59.94508 21.31717 14412 ft 358 kts 33°
2026-05-06 18:40 59.96520 21.34626 13975 ft 356 kts 33°
2026-05-06 18:41 59.98521 21.37523 13510 ft 354 kts 33°
2026-05-06 18:41 60.00498 21.40402 13062 ft 350 kts 33°
2026-05-06 18:41 60.02458 21.43257 12617 ft 346 kts 33°
2026-05-06 18:41 60.04393 21.46075 12177 ft 342 kts 34°
2026-05-06 18:42 60.06309 21.48866 11729 ft 339 kts 34°
2026-05-06 18:42 60.08204 21.51628 11291 ft 335 kts 34°
2026-05-06 18:42 60.10080 21.54374 10836 ft 332 kts 35°
2026-05-06 18:42 60.11933 21.57100 10392 ft 329 kts 35°
2026-05-06 18:43 60.13756 21.59783 10164 ft 319 kts 35°
2026-05-06 18:43 60.15509 21.62366 10040 ft 307 kts 35°
2026-05-06 18:43 60.17186 21.64839 10035 ft 293 kts 35°
2026-05-06 18:43 60.18819 21.67242 9633 ft 295 kts 35°
2026-05-06 18:44 60.20457 21.69653 9304 ft 289 kts 35°
2026-05-06 18:44 60.22144 21.71839 8860 ft 288 kts 25°
2026-05-06 18:44 60.23922 21.73640 8446 ft 286 kts 25°
2026-05-06 18:44 60.25688 21.75440 8079 ft 282 kts 26°
2026-05-06 18:45 60.27432 21.77226 7696 ft 279 kts 26°
2026-05-06 18:45 60.29153 21.78995 7346 ft 276 kts 26°
2026-05-06 18:45 60.30852 21.80746 7002 ft 274 kts 26°
2026-05-06 18:45 60.32539 21.82490 6664 ft 271 kts 26°
2026-05-06 18:46 60.34193 21.84200 6406 ft 263 kts 26°
2026-05-06 18:46 60.35821 21.85880 6001 ft 262 kts 26°
2026-05-06 18:46 60.37430 21.87539 5656 ft 257 kts 26°
2026-05-06 18:46 60.39009 21.89169 5335 ft 253 kts 26°
2026-05-06 18:47 60.40580 21.90681 5020 ft 247 kts 19°
2026-05-06 18:47 60.42238 21.91410 4693 ft 242 kts
2026-05-06 18:47 60.43881 21.91283 4359 ft 231 kts 353°
2026-05-06 18:47 60.45430 21.90975 4059 ft 223 kts 353°
2026-05-06 18:48 60.46952 21.90682 3744 ft 217 kts 353°
2026-05-06 18:48 60.48448 21.90747 3413 ft 210 kts 11°
2026-05-06 18:48 60.49766 21.91822 3157 ft 201 kts 33°
2026-05-06 18:48 60.50707 21.93765 3071 ft 184 kts 59°
2026-05-06 18:49 60.50930 21.96140 2966 ft 169 kts 102°
2026-05-06 18:49 60.50579 21.98422 2674 ft 169 kts 108°
2026-05-06 18:49 60.50281 22.00729 2339 ft 167 kts 97°
2026-05-06 18:49 60.50260 22.03050 2177 ft 165 kts 85°
2026-05-06 18:50 60.50381 22.05366 1962 ft 164 kts 83°
2026-05-06 18:50 60.50490 22.07668 1827 ft 163 kts 84°
2026-05-06 18:50 60.50589 22.09939 1758 ft 155 kts 84°
2026-05-06 18:50 60.50701 22.12038 1520 ft 145 kts 84°
2026-05-06 18:51 60.50808 22.14055 1182 ft 143 kts 83°
2026-05-06 18:51 60.50926 22.16024 909 ft 139 kts 84°
2026-05-06 18:51 60.51024 22.17978 771 ft 139 kts 82°
2026-05-06 18:51 60.51111 22.19927 617 ft 141 kts 84°
2026-05-06 18:52 60.51207 22.21928 401 ft 140 kts 83°
2026-05-06 18:52 60.51304 22.23860 210 ft 140 kts 84°
2026-05-06 18:52 60.51387 22.25694 162 ft 109 kts 84°
2026-05-06 18:52 60.51432 22.26665 171 ft 45 kts 84°
2026-05-06 18:53 60.51412 22.27036 170 ft 20 kts 152°
2026-05-06 18:53 60.51348 22.27050 172 ft 1 kts 179°
2026-05-06 18:53 60.51345 22.27050 172 ft 0 kts 179°
2026-05-06 18:53 60.51345 22.27051 172 ft 0 kts 179°
2026-05-06 18:54 60.51325 22.27107 172 ft 11 kts 105°
2026-05-06 18:54 60.51320 22.27274 171 ft 12 kts 120°
2026-05-06 18:54 60.51264 22.27272 173 ft 7 kts 209°
2026-05-06 18:54 60.51214 22.27218 175 ft 10 kts 203°
2026-05-06 18:55 60.51147 22.27262 176 ft 11 kts 150°
2026-05-06 18:55 60.51129 22.27284 176 ft 0 kts 149°
2026-05-06 18:55 60.51127 22.27286 176 ft 0 kts 149°